FLOCK 2K-35 (42877 NORAD) Tracking and Keplerian Element Data

This shows tracking and keplerian element data for the satellite.

Feedback or suggestion? Click here.




ElementValue
Catalog42877
NameFLOCK 2K-35
Epoch Orbit3291
Epoch Day46.21377226
Epoch Year2018
RAAN309.0132
Inclination96.9927
Eccentricity0.0012181
Argument of Perigee173.1581
Mean Anonmoly186.9832
Mean Motion15.35671042
Decay Rate8.956E-05
L11 42877U 17042BE 18046.21377226 .00008956 00000-0 25974-3 0 9999
L22 42877 96.9927 309.0132 0012181 173.1581 186.9832 15.35671042 32915

Live tracking and technical data element details for FLOCK 2K-35 (NORAD 42877). FLOCK 2K-35 can be tracked NOW for your location showing map with azimuth and elevation plus other details from your city location.

Track the satellite on the map from your city or location and see movement details for azimuth, elevation, latitude, longitude, range, height, and movement on the map or in text.







IsCatalogInMostPopularTable: catalog: 42877, numindb: 129
Update: records affected: 1



GetName: 42877 FLOCK 2K-35

Hit Count: updated at: Mon, 19 Nov 2018 11:01:50 GMT